FW0960 Weather Reports


Display with metric or nautical units.
time (UTC)temp
F
wind
direction
speed
MPH
gust
MPH
rain 1hr
in
rain 24hr
in
rain mn
in
humidity
%
barometer
mb
20260509031109 56 207 0.0 2.0 0.00 0.00 0.00 67 1014.9
20260509030603 57 206 0.0 1.0 0.00 0.00 0.00 67 1015.0
20260509030104 57 206 0.0 2.0 0.00 0.00 0.00 66 1014.8
20260509025609 57 206 0.0 2.0 0.00 0.00 0.00 66 1014.8
20260509025103 57 202 0.0 1.0 0.00 0.00 0.00 66 1014.8
20260509024609 57 202 0.0 3.0 0.00 0.00 0.00 66 1014.8
20260509024111 57 202 0.0 3.0 0.00 0.00 0.00 66 1014.9
20260509023601 57 202 0.0 0.0 0.00 0.00 0.00 65 1014.9
20260509023104 57 202 0.0 0.0 0.00 0.00 0.00 65 1014.9
20260509022110 57 202 0.0 1.0 0.00 0.00 0.00 66 1015.0
20260509021603 57 202 0.0 2.0 0.00 0.00 0.00 65 1015.1
20260509021105 57 202 0.0 2.0 0.00 0.00 0.00 66 1015.0
20260509020604 57 205 0.0 2.0 0.00 0.00 0.00 66 1014.9
20260509020105 57 205 0.0 2.0 0.00 0.00 0.00 66 1014.9
20260509015604 58 205 0.0 2.0 0.00 0.00 0.00 66 1014.9
20260509015105 58 205 0.0 2.0 0.00 0.00 0.00 66 1015.0
20260509014605 58 205 0.0 2.0 0.00 0.00 0.00 66 1015.0
20260509014106 58 203 0.0 1.0 0.00 0.00 0.00 66 1014.8
20260509013602 58 199 0.0 2.0 0.00 0.00 0.00 66 1015.0
20260509012549 58 198 0.0 3.0 0.00 0.00 0.00 66 1014.8
20260509012042 58 198 0.0 3.0 0.00 0.00 0.00 66 1014.8
20260509011549 59 186 0.0 3.0 0.00 0.00 0.00 67 1014.6
20260509011036 59 189 0.0 3.0 0.00 0.00 0.00 67 1014.5
20260509010535 59 189 0.0 3.0 0.00 0.00 0.00 67 1014.6
20260509010033 59 166 0.0 1.0 0.00 0.00 0.00 67 1014.5
20260509005534 59 167 0.0 2.0 0.00 0.00 0.00 67 1014.4
20260509004029 60 166 0.0 1.0 0.00 0.00 0.00 64 1014.3
20260509003533 60 166 0.0 3.0 0.00 0.00 0.00 64 1014.2
20260509002528 61 187 0.0 1.0 0.00 0.00 0.00 63 1014.3
20260509002027 61 187 0.0 1.0 0.00 0.00 0.00 62 1014.2
20260509001527 61 187 0.0 2.0 0.00 0.00 0.00 61 1014.2
20260509000528 62 187 0.0 2.0 0.00 0.00 0.00 60 1014.1
20260508235526 62 113 0.0 2.0 0.00 0.00 0.00 58 1013.9
20260508234527 64 112 0.0 2.0 0.00 0.00 0.00 56 1013.8
20260508234027 65 117 0.0 1.0 0.00 0.00 0.00 54 1013.9
20260508233528 65 117 0.0 3.0 0.00 0.00 0.00 50 1013.8
20260508233029 65 120 0.0 3.0 0.00 0.00 0.00 46 1013.7
20260508232525 65 141 1.0 3.0 0.00 0.00 0.00 47 1013.7
20260508231526 66 202 0.0 2.0 0.00 0.00 0.00 46 1013.4
20260508231022 66 144 0.0 3.0 0.00 0.00 0.00 47 1013.3
20260508230525 66 122 0.0 3.0 0.00 0.00 0.00 46 1013.3
20260508230021 66 123 0.0 2.0 0.00 0.00 0.00 48 1013.5
20260508225521 66 123 1.0 2.0 0.00 0.00 0.00 47 1013.5
20260508225021 66 222 0.0 4.0 0.00 0.00 0.00 47 1013.4
20260508224014 67 158 1.0 4.0 0.00 0.00 0.00 46 1013.6
20260508223517 67 170 1.0 4.0 0.00 0.00 0.00 45 1013.5
20260508223015 67 191 0.0 3.0 0.00 0.00 0.00 47 1013.4
20260508222513 67 150 1.0 3.0 0.00 0.00 0.00 47 1013.4
20260508222012 67 223 1.0 4.0 0.00 0.00 0.00 45 1013.5
20260508221511 67 51 0.0 4.0 0.00 0.00 0.00 44 1013.5
20260508221014 67 144 0.0 3.0 0.00 0.00 0.00 47 1013.3
20260508220509 67 140 1.0 4.0 0.00 0.00 0.00 46 1013.5
20260508220011 67 180 1.0 4.0 0.00 0.00 0.00 45 1013.3
20260508215006 67 211 1.0 4.0 0.00 0.00 0.00 46 1013.3
20260508214503 67 156 1.0 4.0 0.00 0.00 0.00 44 1013.3
20260508214005 67 145 1.0 5.0 0.00 0.00 0.00 43 1013.4
20260508212503 67 116 1.0 3.0 0.00 0.00 0.00 44 1013.5
20260508212005 67 175 1.0 3.0 0.00 0.00 0.00 44 1013.5
20260508211008 68 148 0.0 3.0 0.00 0.00 0.00 47 1013.5
20260508210500 67 135 1.0 6.0 0.00 0.00 0.00 46 1013.4
20260508205506 67 115 1.0 6.0 0.00 0.00 0.00 46 1013.5
20260508205000 68 105 1.0 4.0 0.00 0.00 0.00 44 1013.3
20260508204500 68 168 1.0 4.0 0.00 0.00 0.00 45 1013.6
20260508204000 68 153 1.0 6.0 0.00 0.00 0.00 45 1013.5
20260508203458 68 160 1.0 6.0 0.00 0.00 0.00 45 1013.5
20260508202459 68 163 1.0 6.0 0.00 0.00 0.00 44 1013.7
20260508201451 68 145 1.0 4.0 0.00 0.00 0.00 45 1013.6
20260508200943 68 137 1.0 4.0 0.00 0.00 0.00 44 1013.8
20260508200437 68 144 0.0 3.0 0.00 0.00 0.00 48 1013.6
20260508195935 68 107 1.0 3.0 0.00 0.00 0.00 47 1013.6
20260508194935 68 107 1.0 4.0 0.00 0.00 0.00 43 1013.6
20260508194431 67 165 1.0 4.0 0.00 0.00 0.00 47 1013.6
20260508193931 66 169 1.0 3.0 0.00 0.00 0.00 48 1013.6
20260508193433 65 19 1.0 3.0 0.00 0.00 0.00 55 1013.9
20260508192930 67 40 1.0 3.0 0.00 0.00 0.00 53 1013.8
20260508192433 68 103 1.0 2.0 0.00 0.00 0.00 52 1014.1
20260508191933 68 113 1.0 5.0 0.00 0.00 0.00 37 1014.1
20260508191432 68 94 1.0 6.0 0.00 0.00 0.00 38 1014.0
20260508190435 67 122 1.0 7.0 0.00 0.00 0.00 41 1014.2
20260508185932 67 159 1.0 7.0 0.00 0.00 0.00 40 1014.1
20260508185436 68 99 1.0 6.0 0.00 0.00 0.00 39 1014.3
20260508184431 67 144 1.0 5.0 0.00 0.00 0.00 43 1014.3
20260508183430 68 149 1.0 5.0 0.00 0.00 0.00 43 1014.3
20260508182428 67 149 0.0 3.0 0.00 0.00 0.00 45 1014.5
20260508181428 66 159 1.0 7.0 0.00 0.00 0.00 44 1014.5
20260508180924 66 136 1.0 5.0 0.00 0.00 0.00 45 1014.6
20260508180422 66 159 1.0 5.0 0.00 0.00 0.00 42 1014.7
20260508175422 65 167 1.0 6.0 0.00 0.00 0.00 46 1014.9
20260508174414 65 113 1.0 3.0 0.00 0.00 0.00 51 1014.8
20260508173912 64 336 0.0 2.0 0.00 0.00 0.00 60 1014.9
20260508173415 65 322 0.0 2.0 0.00 0.00 0.00 55 1014.9
20260508172915 64 320 1.0 2.0 0.00 0.00 0.00 49 1015.0
20260508171411 64 134 0.0 0.0 0.00 0.00 0.00 57 1015.0
20260508165411 63 25 0.0 2.0 0.00 0.00 0.00 58 1015.2
20260508164859 63 350 0.0 2.0 0.00 0.00 0.00 58 1015.1
20260508164354 62 355 0.0 2.0 0.00 0.00 0.00 56 1015.1
20260508162837 62 159 1.0 2.0 0.00 0.00 0.00 61 1015.4
20260508162332 62 165 1.0 4.0 0.00 0.00 0.00 58 1015.6
20260508161833 62 165 0.0 4.0 0.00 0.00 0.00 57 1015.6
20260508161332 62 167 0.0 3.0 0.00 0.00 0.00 56 1015.7
20260508160834 62 168 0.0 2.0 0.00 0.00 0.00 57 1015.6
20260508160334 62 169 0.0 2.0 0.00 0.00 0.00 54 1015.7
20260508155837 62 169 0.0 2.0 0.00 0.00 0.00 50 1015.7
20260508154833 61 180 1.0 1.0 0.00 0.00 0.00 52 1016.0
20260508154333 61 181 0.0 2.0 0.00 0.00 0.00 53 1016.0
20260508153833 60 186 0.0 2.0 0.00 0.00 0.00 52 1016.1
20260508153400 60 186 1.0 3.0 0.00 0.00 0.00 48 1016.1
20260508152333 60 116 0.0 2.0 0.00 0.00 0.00 48 1016.3
20260508151835 60 113 0.0 2.0 0.00 0.00 0.00 52 1016.3
20260508150834 59 113 0.0 5.0 0.00 0.00 0.00 52 1016.5
20260508150330 59 113 0.0 5.0 0.00 0.00 0.00 51 1016.5
20260508145325 58 207 1.0 3.0 0.00 0.00 0.00 52 1016.6
20260508144313 58 196 1.0 2.0 0.00 0.00 0.00 52 1016.6
20260508143806 58 200 1.0 6.0 0.00 0.00 0.00 55 1016.8
20260508143306 58 199 1.0 6.0 0.00 0.00 0.00 52 1016.7
20260508142306 57 178 1.0 3.0 0.00 0.00 0.00 55 1016.8
20260508141808 57 193 1.0 3.0 0.00 0.00 0.00 63 1016.6
20260508140830 57 197 1.0 6.0 0.00 0.00 0.00 60 1016.6
20260508135803 57 199 1.0 6.0 0.00 0.00 0.00 57 1016.4
20260508135308 57 197 1.0 6.0 0.00 0.00 0.00 63 1016.4
20260508133801 57 190 1.0 2.0 0.00 0.00 0.00 62 1016.5
20260508133303 56 199 1.0 4.0 0.00 0.00 0.00 62 1016.5
20260508132803 56 196 1.0 4.0 0.00 0.00 0.00 63 1016.6
20260508131802 56 191 1.0 3.0 0.00 0.00 0.00 66 1016.5
20260508131304 56 200 1.0 3.0 0.00 0.00 0.00 62 1016.6
20260508130804 56 202 1.0 4.0 0.00 0.00 0.00 63 1016.6
20260508125807 55 199 1.0 4.0 0.00 0.00 0.00 63 1016.4
20260508125306 55 186 1.0 5.0 0.00 0.00 0.00 63 1016.6
20260508124802 55 186 1.0 5.0 0.00 0.00 0.00 62 1016.6
20260508124301 55 202 1.0 8.0 0.00 0.00 0.00 64 1016.5
20260508123803 55 205 1.0 8.0 0.00 0.00 0.00 65 1016.3
20260508122801 55 188 1.0 6.0 0.00 0.00 0.00 67 1016.2
20260508122306 55 196 2.0 9.0 0.00 0.00 0.00 68 1016.1
20260508121808 55 194 1.0 9.0 0.00 0.00 0.00 68 1016.1
20260508120802 54 195 1.0 5.0 0.00 0.00 0.00 68 1016.0
20260508120303 54 203 1.0 4.0 0.00 0.00 0.00 70 1016.0
20260508115305 54 201 1.0 9.0 0.00 0.00 0.00 73 1015.9
20260508114804 54 200 1.0 9.0 0.00 0.00 0.00 72 1015.9
20260508114301 53 196 1.0 5.0 0.00 0.00 0.00 71 1015.8
20260508113257 53 200 0.0 1.0 0.00 0.00 0.00 75 1015.7
20260508112804 52 200 0.0 1.0 0.00 0.00 0.00 75 1015.7
20260508111754 52 200 1.0 2.0 0.00 0.00 0.00 75 1015.5
20260508111254 51 200 0.0 2.0 0.00 0.00 0.00 76 1015.4
20260508110749 51 196 0.0 0.0 0.00 0.00 0.00 77 1015.3
20260508110248 51 196 0.0 0.0 0.00 0.00 0.00 77 1015.3
20260508104746 51 197 0.0 0.0 0.00 0.00 0.00 77 1015.0
20260508104247 50 197 0.0 0.0 0.00 0.00 0.00 77 1015.0
20260508103249 50 197 0.0 1.0 0.00 0.00 0.00 77 1014.8
20260508102248 50 197 0.0 1.0 0.00 0.00 0.00 77 1014.7
20260508101744 50 207 0.0 1.0 0.00 0.00 0.00 77 1014.6
20260508101245 51 207 0.0 1.0 0.00 0.00 0.00 77 1014.5
20260508100747 51 209 0.0 1.0 0.00 0.00 0.00 78 1014.3
20260508100249 51 209 0.0 1.0 0.00 0.00 0.00 78 1014.3
20260508095750 51 209 1.0 2.0 0.00 0.00 0.00 78 1014.3
20260508095245 51 209 1.0 2.0 0.00 0.00 0.00 79 1014.2
20260508094250 51 213 0.0 2.0 0.00 0.00 0.00 80 1013.9
20260508093750 51 213 0.0 3.0 0.00 0.00 0.00 80 1013.8
20260508093250 51 210 0.0 3.0 0.00 0.00 0.00 81 1013.7
20260508092747 51 209 1.0 2.0 0.00 0.00 0.00 82 1013.6
20260508092244 51 208 1.0 2.0 0.00 0.00 0.00 83 1013.6
20260508091745 51 208 1.0 2.0 0.00 0.00 0.00 84 1013.5
20260508091241 51 207 1.0 2.0 0.00 0.00 0.00 84 1013.5
20260508090743 51 207 1.0 2.0 0.00 0.00 0.00 85 1013.5
20260508090243 51 198 1.0 2.0 0.00 0.00 0.00 86 1013.4
20260508085239 51 177 0.0 1.0 0.00 0.00 0.00 87 1013.3
20260508084739 51 174 0.0 1.0 0.00 0.00 0.00 88 1013.1
20260508084241 51 175 0.0 1.0 0.00 0.00 0.00 88 1013.1
20260508083742 51 150 0.0 1.0 0.00 0.00 0.00 88 1013.1
20260508083241 51 148 0.0 2.0 0.00 0.00 0.00 89 1013.1
20260508082238 51 138 0.0 1.0 0.00 0.00 0.00 89 1012.9
20260508081236 51 135 0.0 3.0 0.00 0.00 0.00 89 1012.8
20260508080731 51 136 0.0 3.0 0.00 0.00 0.00 90 1012.8
20260508080232 51 137 0.0 3.0 0.00 0.00 0.00 90 1012.7
20260508075732 51 153 0.0 0.0 0.00 0.00 0.00 90 1012.7
20260508075225 51 153 0.0 2.0 0.00 0.00 0.00 90 1012.6
20260508074725 51 153 0.0 2.0 0.00 0.00 0.00 90 1012.6
20260508074221 51 157 1.0 1.0 0.00 0.00 0.00 91 1012.4
20260508073721 51 160 0.0 1.0 0.00 0.00 0.00 91 1012.2
20260508073218 50 160 0.0 4.0 0.00 0.00 0.00 91 1012.2
20260508072718 50 160 0.0 4.0 0.00 0.00 0.00 91 1012.0
20260508072218 50 164 0.0 1.0 0.00 0.00 0.00 91 1012.0
20260508071716 50 173 0.0 0.0 0.00 0.00 0.00 91 1012.1
20260508071213 50 173 0.0 0.0 0.00 0.00 0.00 91 1012.0
20260508070713 50 173 0.0 0.0 0.00 0.00 0.00 91 1011.9
20260508070213 49 173 0.0 0.0 0.00 0.00 0.00 91 1011.8
20260508065705 49 173 0.0 0.0 0.00 0.00 0.00 91 1011.7
20260508065206 49 173 0.0 0.0 0.00 0.00 0.00 91 1011.7
20260508064700 49 173 0.0 0.0 0.00 0.00 0.00 91 1011.8
20260508064207 49 173 0.0 0.0 0.00 0.00 0.00 91 1011.8
20260508063727 49 173 0.0 0.0 0.00 0.00 0.00 91 1011.9
20260508063207 49 173 0.0 0.0 0.00 0.00 0.00 91 1011.9
20260508062708 49 173 0.0 0.0 0.00 0.00 0.00 91 1011.8
20260508062205 49 173 0.0 0.0 0.00 0.00 0.00 91 1011.7
20260508061704 49 173 0.0 0.0 0.00 0.00 0.00 91 1011.8
20260508061153 49 173 0.0 1.0 0.00 0.00 0.00 91 1011.7
20260508060650 49 173 0.0 1.0 0.00 0.00 0.00 91 1011.7
20260508060147 49 174 0.0 1.0 0.00 0.00 0.00 91 1011.8
20260508055646 49 174 0.0 2.0 0.00 0.00 0.00 91 1011.7
20260508054648 49 178 0.0 1.0 0.00 0.00 0.00 91 1011.7
20260508054141 49 178 0.0 2.0 0.00 0.00 0.00 91 1011.7
20260508053647 49 178 0.0 2.0 0.00 0.00 0.00 91 1011.8
20260508052141 49 178 0.0 2.0 0.00 0.00 0.00 91 1011.8
20260508051639 49 181 0.0 1.0 0.00 0.00 0.00 92 1011.9
20260508051138 49 186 0.0 1.0 0.00 0.00 0.00 92 1011.9
20260508050636 49 188 0.0 0.0 0.00 0.00 0.00 92 1011.9
20260508050135 49 188 0.0 0.0 0.00 0.00 0.00 92 1011.8
20260508045637 49 188 0.0 0.0 0.00 0.00 0.00 93 1011.9
20260508045137 49 188 0.0 0.0 0.00 0.00 0.00 93 1011.9
20260508044635 49 188 0.0 0.0 0.00 0.00 0.00 94 1011.9
20260508044134 49 188 0.0 0.0 0.00 0.00 0.00 94 1011.9
20260508043129 49 188 0.0 0.0 0.00 0.00 0.00 94 1011.9
20260508042635 49 188 0.0 0.0 0.00 0.00 0.00 94 1011.8
20260508042129 49 188 0.0 0.0 0.00 0.00 0.00 94 1011.9
20260508041629 49 188 0.0 0.0 0.00 0.00 0.00 94 1011.8
20260508041138 49 188 0.0 0.0 0.00 0.00 0.00 94 1011.7
20260508040629 50 188 0.0 0.0 0.00 0.00 0.00 94 1011.7
20260508040136 50 188 0.0 0.0 0.00 0.00 0.00 94 1011.6
20260508035136 50 188 0.0 0.0 0.00 0.00 0.00 94 1011.6
20260508034630 50 188 0.0 0.0 0.00 0.00 0.00 94 1011.6
20260508033637 50 188 0.0 0.0 0.00 0.00 0.00 94 1011.4
20260508032635 50 188 0.0 0.0 0.00 0.00 0.00 94 1011.5
20260508032129 51 188 0.0 0.0 0.00 0.00 0.00 94 1011.4
20260508031630 51 188 0.0 0.0 0.00 0.00 0.00 94 1011.6